Regional Weather Roundup
Issued by NWS

Home | Current Version | Previous Version | Text Only | Print | Product List | Glossary On
Versions: 1 2 3 4 5 6 7 8 9 10 11 12 13 14 15 16 17 18 19 20 21 22 23 24 25 26 27 28 29 30 31 32 33 34 35 36 37 38 39 40 41 42 43 44 45 46 47 48 49 50
730
ASCA44 KEWX 101911
RWRMX

LATIN AMERICA AND CARIBBEAN REGIONAL WEATHER ROUNDUP
NATIONAL WEATHER SERVICE AUSTIN/SAN ANTONIO TX
100 PM CST WED FEB 10 2016

NOTE: "FAIR" INDICATED FEW OR NO CLOUDS BELOW 12,000 FEET WITH NO
SIGNIFICANT WEATHER AND/OR OBSTRUCTIONS TO VISIBILITY.

BAJA CALIFORNIA

CITY           SKY/WX    TMP DP  RH WIND       PRES   REMARKS
LORETO         SUNNY     79  57  47 CALM      30.09F
LA PAZ         SUNNY     79  43  27 N17       30.11F
MEXICALI       PTSUNNY   77  23  13 NW5       30.20F
S.J. DEL CABO  SUNNY     86  43  22 N14       30.08F
TIJUANA        MOSUNNY   82  27  13 E3        30.17F

NORTHWESTERN MEXICO

CITY           SKY/WX    TMP DP  RH WIND       PRES   REMARKS
CULIACAN       SUNNY     86  68  54 S5        30.08F
DURANGO        SUNNY     63  27  25 CALM      30.43F
GUAYMAS        SUNNY     81  50  34 CALM      30.07F
HERMOSILLO     SUNNY     90  21   8 E7        30.16F
CD. JUAREZ     SUNNY     59  34  38 CALM      30.40F
LOS MOCHIS     SUNNY     84  46  26 CALM      30.08F
OBREGON        SUNNY     82  43  24 W6        30.07F

NORTHEASTERN MEXICO

CITY           SKY/WX    TMP DP  RH WIND       PRES   REMARKS
CHIHUAHUA      SUNNY     64  21  19 NE5       30.40F
MATAMOROS      SUNNY     77  43  29 S9        30.40F
MONCLOVA       SUNNY     72  23  16 CALM      30.32F
MONTERREY      SUNNY     73  19  13 SE7       30.31F
NUEVO LAREDO   SUNNY     79  39  24 CALM      30.33F
PIEDRAS NEGRAS SUNNY     70  39  32 SE5       30.35F
REYNOSA        SUNNY     77  23  13 SE7       30.33F
SALTILLO       SUNNY     66  37  34 N9        30.43F
TORREON        SUNNY     68  34  28 E6        30.37F
CD. VICTORIA   SUNNY     75  32  20 SE10      30.36F

WESTERN MEXICO

CITY           SKY/WX    TMP DP  RH WIND       PRES   REMARKS
AGUASCALIENTES SUNNY     63  30  29 CALM      30.42F
COLIMA         PTSUNNY   82  48  30 CALM      30.12F
DEL BAJIO      SUNNY     64  36  34 S9        30.43F
GUADALAJARA    MOSUNNY   70  34  26 SE7       30.34F
MANZANILLO       N/A    N/A N/A N/A MISG        N/A
MAZATLAN       SUNNY     90  52  27 N8        30.04F
P. VALLARTA    MOSUNNY   82  57  42 SW7       30.03F
URUAPAN        PTSUNNY   75  46  35 CALM      30.27F
ZACATECAS      SUNNY     63  34  34 SE12      30.42F

CENTRAL MEXICO

CITY           SKY/WX    TMP DP  RH WIND       PRES   REMARKS
CUERNAVACA     CLOUDY    68  37  32 CALM      30.31F
MEXICO CITY    PTSUNNY   54  34  47 N7        30.46F
MORELIA        CLOUDY    59  39  47 N3        30.39F
POZA RICA      CLOUDY    68  57  68 CALM      30.45F
PUEBLA         CLOUDY    57  32  38 NE14      30.44F
QUERETARO      MOSUNNY   61  37  41 E12       30.46F
S. LUIS POTOSI SUNNY     61  27  27 E12       30.43
TAMPICO        SUNNY     73  41  31 S10       30.39F
TOLUCA         PTSUNNY   63  28  27 E15       30.45F

SOUTHERN MEXICO

CITY           SKY/WX    TMP DP  RH WIND       PRES   REMARKS
ACAPULCO       SUNNY     86  72  62 SW9       29.98F HX  92
B. DE HUATULCO SUNNY     90  72  55 CALM      30.02F HX  96
OAXACA         PTSUNNY   68  32  26 NE15      30.38F
P. ESCONDIDO   SUNNY     82  61  47 W9        30.08F
VERACRUZ       CLOUDY    73  55  53 NE12      30.39F
ZIHUATANEJO    PTSUNNY   86  73  66 SW7       30.02F HX  93

YUCATAN PENINSULA

CITY           SKY/WX    TMP DP  RH WIND       PRES   REMARKS
CAMPECHE       PTSUNNY   70  57  64 N14       30.30F
CANCUN         PTSUNNY   73  52  46 NW7       30.26F
CHETUMAL       PTSUNNY   73  55  53 NW14      30.28F
CD. DEL CARMEN CLOUDY    72  59  64 N3        30.32F
COZUMEL        MOSUNNY   70  55  60 N14       30.25F
MERIDA         PTSUNNY   75  52  43 N9        30.30F
MINATITLAN     PTSUNNY   73  63  68 N12G29    30.33F
TAPACHULA      MOSUNNY   86  72  62 CALM      30.00F HX  92
TUX. GUTIERREZ MOSUNNY   75  46  35 NW18      30.22F
VILLAHERMOSA   CLOUDY    72  59  64 CALM      30.34F

CENTRAL AMERICA

CITY           SKY/WX    TMP DP  RH WIND       PRES   REMARKS
BELIZE CITY    MOSUNNY   77  57  50 NW10      30.26F
MANAGUA        PTCLDY    91  64  40 E21       29.92F HX  93

CARIBBEAN

CITY           SKY/WX    TMP DP  RH WIND       PRES   REMARKS
ARUBA          MOSUNNY   86  73  66 E23G36    29.89F VSB 5/8 HX  93
CURACAO        MOSUNNY   84  73  70 SE22      29.94F HX  91
NASSAU         PTSUNNY   72  39  30 W10       30.17F
SAN JUAN       MOSUNNY   86  68  54 SE12G17   30.04F
SANTO DOMINGO  MOSUNNY   86  72  62 S9        30.00F HX  92
ST. CROIX      MOSUNNY   84  68  58 E13       30.05F
ST. MAARTEN    MOSUNNY   82  68  61 E10       30.03F
ST. THOMAS     SUNNY     81  70  69 SE13      30.05F

$$





USA.gov is the U.S. government's official web portal to all federal, state and local government web resources and services.